Regional Weather Roundup
Issued by NWS

Home | Current Version | Previous Version | Text Only | Print | Product List | Glossary Off
Versions: 1 2 3 4 5 6 7 8 9 10 11 12 13 14 15 16 17 18 19 20 21 22 23 24 25 26 27 28 29 30 31 32 33 34 35 36 37 38 39 40 41 42 43 44 45 46 47 48 49 50

464
ASUS45 KBOI 170710
RWRID

IDAHO REGIONAL WEATHER ROUNDUP
NATIONAL WEATHER SERVICE BOISE ID
1200 AM MST WED JAN 17 2018

NOTE: "FAIR" INDICATES FEW OR NO CLOUDS BELOW 12000 FEET
WITH NO SIGNIFICANT WEATHER AND/OR OBSTRUCTIONS TO VISIBILITY

IDZ012-014-170800-
SOUTHWEST IDAHO


CITY           SKY/WX    TMP DP  RH WIND       PRES   REMARKS
BOISE          FOG       33  33 100 SW3       30.36R VSB 1/4
CALDWELL       PTCLDY    30  28  93 NE3       30.38S FOG
MOUNTAIN HOME  FOG       30  30 100 E3        30.37F VSB 1/4
$$

IDZ016-017-170800-
SOUTHCENTRAL IDAHO


CITY           SKY/WX    TMP DP  RH WIND       PRES   REMARKS
BURLEY         CLOUDY    36  31  82 W9        30.37S WCI  29
JEROME         CLOUDY    34  32  92 E8        30.37F WCI  27
TWIN FALLS     CLOUDY    33  33 100 S7        30.38S WCI  27
$$

IDZ019>023-170800-
SOUTHEAST IDAHO


CITY           SKY/WX    TMP DP  RH WIND       PRES   REMARKS
IDAHO FALLS    CLEAR     29  26  89 CALM      30.37R
POCATELLO      CLOUDY    32  29  88 S3        30.37S
REXBURG        CLOUDY    22  17  81 CALM      30.36R
$$

IDZ006-010-011-018-031-032-170800-
CENTRAL IDAHO MOUNTAINS


CITY           SKY/WX    TMP DP  RH WIND       PRES   REMARKS
MCCALL         FOG       27  26  96 CALM      30.30F VSB 3/4
HAILEY         PTCLDY    25  21  86 NW8       30.39S WCI  16
STANLEY        NOT AVBL
SALMON         PTCLDY    24  23  96 CALM      30.42F
CHALLIS        CLEAR     17  14  88 SE5       30.40R WCI  10
$$

IDZ002-004-006-007-026-170800-
NORTHERN IDAHO


CITY           SKY/WX    TMP DP  RH WIND       PRES   REMARKS
LEWISTON       CLEAR     36  35  96 SE8       30.33F WCI  30
LOWELL         NOT AVBL
COEUR D`ALENE  FOG       28  28 100 E5        30.32S VSB 1/4 WCI  23
MULLAN PASS    PTCLDY    28  27  96 SW7       30.26R WCI  21
$$




USA.gov is the U.S. government's official web portal to all federal, state and local government web resources and services.